Chicago Executive, IL

3:03 AM CDT on May 25, 2017 (GMT -0500)
Chicago Executive

Weather History for KPWK - October, 2013

Change the Weather History Date:

Tuesday, October 1, 2013

  Actual Average Record
Temperature  
Mean Temperature 72 °F 58 °F  
Max Temperature 80 °F 68 °F 82 °F (2000)
Min Temperature 63 °F 48 °F 31 °F (2003)
Degree Days  
Heating Degree Days 0 8  
Month to date heating degree days 0 8  
Since 1 July heating degree days 90 120  
Cooling Degree Days 7 1  
Month to date cooling degree days 7 1  
Year to date cooling degree days 903 779  
Growing Degree Days 21 (Base 50)    
Moisture  
Dew Point 61 °F    
Average Humidity 74    
Maximum Humidity 94    
Minimum Humidity 52    
Precipitation  
Precipitation 0.00 in 0.13 in 1.05 in (2016)
Month to date precipitation 0.00 0.13  
Year to date precipitation 22.90 25.82  
Sea Level Pressure  
Sea Level Pressure 29.93 in    
Wind  
Wind Speed 10 mph (SSW)    
Max Wind Speed 21 mph    
Max Gust Speed 28 mph    
Visibility 9 miles    
Events      
T = Trace of Precipitation, MM = Missing Value Source: NWS Daily Summary

Daily Weather History Graph

Daily Weather History Graph

Search for Another Location

Airport or City:

Trip Planner

Search our weather history database for the weather conditions in past years. The results will help you decide how hot, cold, wet, or windy it might be!

Date:

Astronomy

Oct. 01, 2013 Rise Set
Actual Time 6:48 AM CDT 6:32 PM CDT
Civil Twilight 6:20 AM CDT 7:00 PM CDT
Nautical Twilight 5:48 AM CDT 7:32 PM CDT
Astronomical Twilight 5:15 AM CDT 8:05 PM CDT
Moon 3:19 AM CDT (10/1) 4:38 PM CDT (10/1)
Length of Visible Light 12h 39m
Length of Day
11h 43m
Waning Crescent, 12% of the Moon is Illuminated
Oct 1
Waning Crescent
Oct 4
New
Oct 11
First Quarter
Oct 18
Full
Oct 26
Last Quarter

Hourly Weather History & Observations

Time (CDT) Temp. Heat Index Dew Point Humidity Pressure Visibility Wind Dir Wind Speed Gust Speed Precip Events Conditions
12:52 AM 64.0 °F - 54.0 °F 70% 29.91 in 10.0 mi SW 3.5 mph - N/A   Clear
1:52 AM 64.0 °F - 55.9 °F 75% 29.92 in 10.0 mi SSW 8.1 mph - N/A   Clear
2:52 AM 64.0 °F - 57.9 °F 80% 29.92 in 10.0 mi SSW 6.9 mph - N/A   Clear
3:52 AM 64.0 °F - 59.0 °F 84% 29.92 in 10.0 mi SSW 8.1 mph - N/A   Clear
4:52 AM 63.0 °F - 59.0 °F 87% 29.92 in 9.0 mi SSW 6.9 mph - N/A   Partly Cloudy
5:15 AM 62.6 °F - 59.0 °F 88% 29.94 in 8.0 mi SSW 6.9 mph - N/A   Mostly Cloudy
5:30 AM 62.6 °F - 60.8 °F 94% 29.94 in 8.0 mi SSW 9.2 mph - N/A   Overcast
5:52 AM 63.0 °F - 60.1 °F 90% 29.93 in 8.0 mi SSW 8.1 mph - N/A   Overcast
6:20 AM 62.6 °F - 60.8 °F 94% 29.94 in 7.0 mi SSW 8.1 mph - N/A   Mostly Cloudy
6:29 AM 62.6 °F - 60.8 °F 94% 29.94 in 7.0 mi SSW 8.1 mph - N/A   Mostly Cloudy
6:52 AM 64.0 °F - 60.1 °F 87% 29.95 in 8.0 mi SSW 10.4 mph - N/A   Overcast
7:52 AM 64.9 °F - 61.0 °F 87% 29.96 in 5.0 mi SSW 11.5 mph - N/A   Overcast
8:52 AM 66.9 °F - 62.1 °F 84% 29.96 in 6.0 mi SSW 12.7 mph 19.6 mph N/A   Haze
9:52 AM 68.0 °F - 63.0 °F 84% 29.96 in 7.0 mi SSW 13.8 mph 19.6 mph N/A   Overcast
10:52 AM 69.1 °F - 63.0 °F 81% 29.95 in 7.0 mi SSW 16.1 mph 23.0 mph N/A   Overcast
11:52 AM 69.1 °F - 63.0 °F 81% 29.96 in 7.0 mi SW 11.5 mph 20.7 mph N/A   Overcast
12:22 PM 71.6 °F - 62.6 °F 73% 29.95 in 7.0 mi SSW 12.7 mph 24.2 mph N/A   Overcast
12:52 PM 73.0 °F - 62.1 °F 68% 29.92 in 8.0 mi SSW 11.5 mph 25.3 mph N/A   Mostly Cloudy
1:19 PM 75.2 °F - 62.6 °F 65% 29.93 in 9.0 mi SSW 12.7 mph 23.0 mph N/A   Scattered Clouds
1:52 PM 75.9 °F - 62.1 °F 62% 29.91 in 9.0 mi SSW 15.0 mph 23.0 mph N/A   Partly Cloudy
2:52 PM 78.1 °F - 61.0 °F 56% 29.89 in 10.0 mi SSW 16.1 mph 25.3 mph N/A   Clear
3:52 PM 79.0 °F - 61.0 °F 54% 29.90 in 10.0 mi SW 15.0 mph 24.2 mph N/A   Partly Cloudy
4:52 PM 80.1 °F 81.1 °F 61.0 °F 52% 29.89 in 10.0 mi SSW 15.0 mph 21.9 mph N/A   Clear
5:52 PM 79.0 °F - 60.1 °F 52% 29.90 in 10.0 mi SSW 9.2 mph 19.6 mph N/A   Clear
6:52 PM 77.0 °F - 60.1 °F 56% 29.91 in 10.0 mi SSW 6.9 mph - N/A   Clear
7:52 PM 75.0 °F - 60.1 °F 60% 29.92 in 10.0 mi SSW 6.9 mph - N/A   Clear
8:52 PM 73.9 °F - 60.1 °F 62% 29.94 in 10.0 mi SSW 6.9 mph - N/A   Clear
9:52 PM 73.0 °F - 61.0 °F 66% 29.95 in 10.0 mi SSW 5.8 mph - N/A   Scattered Clouds
10:52 PM 73.0 °F - 62.1 °F 68% 29.96 in 10.0 mi WSW 5.8 mph - N/A   Clear
11:52 PM 71.1 °F - 63.0 °F 75% 29.97 in 10.0 mi SW 6.9 mph - N/A   Clear